FENGYUN 1C DEB

Satellite information

Favourite Embed

Satellite Type and Status

DEBRISIN ORBIT

Key statistics

Satellite FENGYUN 1C DEB at a glance.

Uptime

9667

Days in orbit

Revolutions

≈ 13.9

Per day

Orbit

SSO

Sun Synchronous Orbit

Inclination

98.8

Latest

Satellite identification and parameters

Extended collection of information and parameters for FENGYUN 1C DEB.

Object identification

Identified? True

Debris? True

Object name: FENGYUN 1C DEB

International designator: 1999-025CTV

Object number (NORAD): 32175

Object ID (CCSDS): 32175

Country: PEOPLES REPUBLIC OF CHINA (PRC)

Current information (Y/N): Y

RCS size: SMALL

Orbital parameters

Period: 103.281 minutes

Inclination: 98.8207 deg

SMA: 7291.895 km

Apoapsis: 1024.97 km

Periapsis: 802.55 km

RAAN: 289.8915 deg

Eccentricy: 0.0152512

Argument of periapsis: 93.0008 deg

Mean anomaly: 268.8618 deg

Mean motion: 13.94254845 rev/day

Mean motion (dot): 0.00003815 rev/day2

B* drag term: 0.0026346 1/REarth

Two-line elements (TLE)

Creation date: Oct. 26, 2025, 2:46 p.m.

Reference frame: TEME

Reference center: EARTH

Epoch: Oct. 26, 2025, 5:40 a.m. UTC

TLE line 0: 0 FENGYUN 1C DEB

TLE line 1: 1 32175U 99025CTV 25299.23616417 .00003815 00000-0 26346-2 0 9990

TLE line 2: 2 32175 98.8207 289.8915 0152512 93.0008 268.8618 13.94254845591786

Live tracking on map

Real-time ground track for satellite FENGYUN 1C DEB.

In-orbit conjunctions

A list of the most updated potential collisions computed for object FENGYUN 1C DEB.

Target Orbit TCA Probability of collision Miss distance Type
OSCAR 3 LEO 2025-04-03 09:22:28 0.0001663559 753.0 (m) PAYLOAD
SL-14 DEB LEO 2024-12-12 00:34:16 0.0001704249 47.0 (m) DEBRIS
METEOR 1-17 DEB LEO 2024-11-14 02:45:20 0.0002887499 477.0 (m) DEBRIS

Associated space launch

Chinese polar orbiting meteorological satellite

FENGYUN 1C DEB was lifted into orbit during the mission ‘Long March 4B | Feng Yun 1C’, on board a Long March 4B space rocket.

The launch took place on May 10, 1999, 1:33 a.m. from Launch Complex 7.

For more information about the launch, click the button.

Launch to space Long March 4B | Feng Yun 1C
Long March 4B | Feng Yun 1C

Agency: N/A

Status: Launch Successful

Launch date: May 10, 1999, 1:33 a.m. UTC

Rocket: Long March 4B

Launch pad: Launch Complex 7

Location: Taiyuan Satellite Launch Center, People's Republic of China

...

Latest news about this satellite

There are no fresh news available about this satellite. Check back as we update our databases every day.


Newsletter sign-up

Weekly statistics, charts and insights to help you stay on top of the space industry.